#timestamp,LO_Frequency,Hit,StdDev 
1569618015.6,286046998.2,N
1569618035.5,286046999.0,N
1569618055.3,286046999.2,N
1569618075.1,286046996.6,N
1569618095.9,286046998.8,N
1569618115.7,286046999.1,N
1569618135.6,286046997.6,N
1569618155.4,286046997.5,N
1569618175.2,286046996.5,N
1569618195.1,286046996.5,N
1569618196.0,286046996.5,N
1569618215.8,286046999.5,N
1569618235.6,286046999.2,N
1569618255.5,286046999.2,N
1569618275.3,286046998.3,N
1569618295.2,286046998.3,N
1569618315.9,286046998.3,N
1569618335.7,286046998.7,N
1569618355.6,286046998.3,N
1569618375.4,286046996.6,N
1569618395.3,286046997.0,N
1569618415.1,286046996.5,N
1569618416.0,286046996.5,N
1569618435.8,286046997.5,N
1569618455.7,286046997.1,N
1569618475.5,286046997.4,N
1569618495.4,286046999.1,N
1569618515.2,286046999.6,N
1569618535.0,286046996.7,Y
1569618535.9,286046996.7,P
1569618555.8,286046998.8,N
1569618575.6,286047000.6,N
1569618595.5,286047000.4,N
1569618615.3,286046999.9,N
1569618635.1,286047001.3,N
1569618655.9,286047005.6,Y
1569618675.7,286047004.0,P
1569618695.6,286047004.1,N
1569618715.4,286047003.2,N
1569618735.2,286047006.0,Y
1569618755.1,286047002.1,P
1569618756.0,286047002.1,P
1569618775.8,286046999.7,N
1569618795.6,286047002.1,N
1569618815.5,286047001.3,N
1569618835.3,286047002.0,N
1569618855.2,286047000.6,N
1569618875.9,286047000.9,N
1569618895.7,286047000.5,N
1569618915.6,286046998.7,N
1569618935.4,286047001.2,N
1569618955.3,286047001.0,N
1569618975.1,286047000.4,N
1569618976.0,286047000.4,N
1569618995.8,286047002.0,N
1569619015.7,286047004.4,Y
1569619035.5,286046999.8,P
1569619055.4,286047001.2,N
1569619075.2,286046998.9,N
1569619095.0,286046999.5,N
1569619095.9,286046999.5,N
1569619115.8,286046996.7,Y
1569619135.6,286046998.9,P
1569619155.5,286046998.5,N
1569619175.3,286046999.4,N
1569619195.1,286047001.2,N
1569619215.9,286046999.7,N
1569619235.7,286047000.3,N
1569619255.5,286046998.7,N
1569619275.4,286047000.1,N
1569619295.2,286047000.1,N
1569619315.1,286046998.1,N
1569619316.0,286046998.1,N
1569619335.8,286046998.6,N
1569619355.6,286046998.8,N
1569619375.5,286046996.9,Y
1569619395.3,286046999.2,P
1569619415.2,286046998.6,P
1569619435.9,286046998.5,P
1569619455.7,286046999.0,N
1569619475.6,286046998.6,Y
1569619495.4,286046998.2,P
1569619515.3,286047001.0,N
1569619535.1,286047000.5,N
1569619536.0,286047000.5,N
1569619555.8,286047000.7,N
1569619575.7,286046999.8,N
1569619595.5,286047002.8,N
1569619615.4,286047004.0,Y
1569619635.2,286047001.7,P
1569619655.0,286047002.2,P
1569619655.9,286047002.2,N
1569619675.8,286047002.1,N
1569619695.6,286047004.2,Y
1569619715.5,286047002.7,P
1569619735.3,286046998.1,P
1569619755.1,286046999.6,N
1569619775.9,286046997.0,N
1569619795.7,286046997.5,N
1569619815.5,286046998.4,N
1569619835.4,286046999.5,N
1569619855.2,286046996.5,N
1569619875.1,286046998.6,N
1569619876.0,286046998.6,N
1569619895.8,286047001.5,N
1569619915.6,286047002.1,N
1569619935.5,286047001.6,N
1569619955.3,286047000.6,N
1569619975.2,286047001.1,N
1569619995.9,286047000.7,N
1569620015.7,286046998.6,N
1569620035.6,286047000.5,N
1569620055.4,286046999.9,N
1569620075.3,286047000.7,N
1569620095.1,286047000.8,N
1569620096.0,286047000.8,N
1569620115.8,286046998.6,N
1569620135.7,286047001.1,N
1569620155.5,286047000.6,N
1569620175.3,286047001.1,N
1569620195.2,286046998.1,N
1569620215.0,286047000.6,N
1569620215.9,286047000.6,N
1569620235.8,286047004.2,N
1569620255.6,286047001.9,N
1569620275.4,286047002.5,N
1569620295.3,286047002.7,N
1569620315.1,286047000.0,N
1569620335.8,286046998.6,N
1569620355.7,286046999.3,N
1569620375.5,286046999.1,N
1569620395.4,286047000.6,N
1569620415.2,286047001.0,N
1569620435.0,286047002.6,N
1569620435.9,286047002.6,N
1569620455.8,286047002.6,N
1569620475.6,286047000.0,N
1569620495.5,286047000.6,N
1569620515.3,286046999.8,N
1569620535.1,286047002.8,N
1569620555.9,286046998.3,N
1569620575.7,286047001.1,N
1569620595.5,286046998.5,N
1569620615.4,286046999.7,N
1569620635.2,286047002.4,N
1569620655.1,286046999.7,N
1569620656.0,286046999.7,N
1569620675.8,286047000.0,N
1569620695.6,286046998.4,N
1569620715.8,286046998.3,N
1569620735.6,286047000.0,N
1569620755.5,286047001.2,N
1569620775.3,286047000.3,N
1569620795.2,286047001.5,N
1569620815.9,286047000.2,N
1569620835.7,286046999.0,N
1569620855.6,286046998.8,N
1569620875.4,286046999.0,N
1569620895.2,286047002.2,N
1569620915.1,286047003.8,N
1569620916.0,286047003.8,N
1569620935.8,286047005.8,Y
1569620955.7,286047002.9,P
1569620975.5,286047005.5,P
1569620995.3,286047003.0,N
1569621015.2,286047006.0,Y
1569621035.0,286047002.6,P
1569621035.9,286047002.6,P
1569621055.8,286047002.7,P
1569621075.6,286047004.4,Y
1569621095.4,286046998.2,P
1569621115.3,286046998.6,N
1569621135.1,286047001.2,N
1569621155.9,286047002.6,N
1569621175.7,286047000.2,N
1569621195.5,286046999.8,N
1569621215.4,286047002.2,N
1569621235.2,286047002.8,N
1569621255.0,286047001.4,N
1569621255.9,286047001.4,N
1569621275.8,286047004.1,N
1569621295.6,286047001.4,N
1569621315.5,286047001.5,N
1569621335.3,286047004.3,N
1569621355.1,286047001.4,N
1569621375.9,286047004.4,N
1569621395.7,286047001.4,N
1569621415.6,286047002.3,N
1569621435.4,286047004.0,N
1569621455.2,286047001.7,N
1569621475.1,286047004.0,N
1569621476.0,286047004.0,N
1569621495.8,286047001.5,N
1569621515.7,286047002.7,N
1569621535.5,286047002.6,N
1569621555.3,286047002.6,N
1569621575.2,286047000.0,N
1569621595.0,286047000.3,N
1569621595.9,286047000.3,N
